This demonstration page uses our WeatherBlox Daily Observations layout. Learn more.

Left ArrowRight Arrow

Hourly Observations for July 21, 2018

Temp ( °F °C ) Dew Point ( °F °C ) Humidity (%) Winds ( mph kmh ) Pressure ( in mb ) Visibility ( mi km ) Precip ( " mm )
12:53 am 00:53 Clear 78 25.6 48 8.9 35 35 NE 3 6 29.84 1010 10 16 0.00 0.00
1:53 am 01:53 Clear 74 23.3 49 9.4 41 41 NW 3 6 29.85 1011 10 16 0.00 0.00
2:53 am 02:53 Clear 74 23.3 50 10 43 43 Calm 29.85 1011 10 16 0.00 0.00
3:53 am 03:53 Clear 72 22.2 52 11.1 50 50 Calm 29.86 1011 10 16 0.00 0.00
4:53 am 04:53 Clear 71 21.7 53 11.7 53 53 NW 5 7 29.86 1011 10 16 0.00 0.00
5:53 am 05:53 Clear 69 20.6 52 11.1 55 55 Calm 29.88 1012 10 16 0.00 0.00
6:53 am 06:53 Sunny 71 21.7 52 11.1 51 51 Calm 29.90 1012 10 16 0.00 0.00
8:53 am 08:53 Sunny 80 26.7 54 12.2 41 41 W 5 7 29.91 1013 10 16 0.00 0.00
9:53 am 09:53 Sunny 83 28.3 55 12.8 38 38 SW 8 13 29.91 1013 10 16 0.00 0.00
10:53 am 10:53 Sunny 87 30.6 55 12.8 34 34 VRB 3 6 29.90 1013 10 16 0.00 0.00
11:53 am 11:53 Sunny 91 32.8 53 11.7 27 27 Calm 29.90 1012 10 16 0.00 0.00
12:53 pm 12:53 Sunny 93 33.9 52 11.1 25 25 VRB 7 11 29.88 1012 10 16 0.00 0.00
1:53 pm 13:53 Sunny 97 36.1 50 10 20 20 S 9 15 29.86 1011 10 16 0.00 0.00
2:53 pm 14:53 Sunny 98 36.7 45 7.2 16 16 S 12 19 29.85 1011 10 16 0.00 0.00
3:53 pm 15:53 Sunny 100 37.8 41 5 13 13 S 12 19 29.84 1010 10 16 0.00 0.00
4:53 pm 16:53 Sunny 100 37.8 40 4.4 13 13 SSE 12 19 29.83 1010 10 16 0.00 0.00
5:53 pm 17:53 Sunny 99 37.2 49 9.4 18 18 SSE 10 17 29.81 1010 10 16 0.00 0.00
6:53 pm 18:53 Sunny 98 36.7 56 13.3 24 24 SSE 12 19 29.81 1010 10 16 0.00 0.00
7:53 pm 19:53 Sunny 94 34.4 60 15.6 32 32 SSE 10 17 29.82 1010 10 16 0.00 0.00
8:53 pm 20:53 Clear 90 32.2 60 15.6 37 37 SSE 8 13 29.84 1011 10 16 0.00 0.00
9:53 pm 21:53 Clear 89 31.7 62 16.7 41 41 S 5 7 29.87 1012 10 16 0.00 0.00
10:53 pm 22:53 Clear 86 30 62 16.7 45 45 Calm 29.89 1012 10 16 0.00 0.00
11:53 pm 23:53 Clear 84 28.9 62 16.7 48 48 N 5 7 29.91 1013 10 16 0.00 0.00

Powered by AerisWeather